Regional Weather Roundup
Issued by NWS Sioux Falls, SD

Home | Current Version | Previous Version | Graphics & Text | Print | Product List | Glossary On
Versions: 1 2 3 4 5 6 7 8 9 10 11 12 13 14 15 16 17 18 19 20 21 22 23 24 25 26 27 28 29 30 31 32 33 34 35 36 37 38 39 40 41 42 43 44 45 46 47 48 49 50
000
ASUS43 KFSD 292202
RWRFSD

WEATHER ROUNDUP FOR SE SOUTH DAKOTA/SW MINNESOTA/NW IOWA
NATIONAL WEATHER SERVICE SIOUX FALLS SD
500 PM CDT MON JUN 29 2015

NOTE: "FAIR" INDICATES FEW OR NO CLOUDS BELOW 12,000 FEET WITH NO
SIGNIFICANT WEATHER AND OR OBSTRUCTIONS TO VISIBILITY.


SDZ038>040-050-052>070-292300-
SOUTHEAST SOUTH DAKOTA

CITY           SKY/WX    TMP DP  RH WIND       PRES   REMARKS
BROOKINGS      SUNNY     79  63  57 NW12      29.93S
CHAMBERLAIN    SUNNY     91  56  30 NW14G20   29.94S
HURON          SUNNY     87  63  44 N8        29.90F
MADISON        FAIR      79  59  50 NW12      29.93F
MITCHELL       SUNNY     86  62  44 N5        29.92F
SIOUX FALLS    SUNNY     82  57  42 NW8       29.91F HAZE
WINNER         FAIR      93  48  21 N13G21    29.97F
YANKTON        SUNNY     84  59  42 N10       29.91F
$$

MNZ071-072-080-081-089-090-097-098-292300-
SOUTHWEST MINNESOTA

CITY           SKY/WX    TMP DP  RH WIND       PRES   REMARKS
FAIRMONT       SUNNY     81  61  50 NW14      29.86S
JACKSON        SUNNY     81  61  50 NW10      29.89S
LUVERNE        SUNNY     81  57  44 NW9       29.91F
MARSHALL       SUNNY     81  59  47 NW14      29.87S
MONTEVIDEO     SUNNY     81  64  57 NW9       29.85S
PIPESTONE      SUNNY     79  57  47 NW10      29.92S
REDWOOD FALLS  SUNNY     81  63  54 W12       29.84S
TRACY          SUNNY     80  62  53 NW7       29.88S
WINDOM         SUNNY     81  61  50 W10       29.88S
WORTHINGTON    SUNNY     79  59  50 W10       29.90F
$$

IAZ001>003-012>014-020>022-031-032-NEZ013-014-SDZ071-292300-
NORTHWEST IOWA

CITY           SKY/WX    TMP DP  RH WIND       PRES   REMARKS
DENISON        SUNNY     81  61  50 NW12      29.90S
ESTHERVILLE    SUNNY     80  62  54 NW10      29.87F
SIOUX CITY     SUNNY     85  58  39 NW9       29.90F
SPENCER        SUNNY     82  62  50 NW10      29.89F
$$

ABBREVIATIONS USED IN REMARKS
   TC - TEMPERATURE IN CELSIUS
  WCI - WIND CHILL INDEX
   HX - HEAT INDEX
  VSB - VISIBILITY




USA.gov is the U.S. government's official web portal to all federal, state and local government web resources and services.